Tracking 25710 objects as of 5-Jul-2022
HD Live streaming from Space Station
objects crossing your sky now

STARLINK-3834

Track STARLINK-3834 now!
10-day predictions
STARLINK-3834 is classified as:


NORAD ID: 52368
Int'l Code: 2022-045AP
Perigee: 355.1 km
Apogee: 358.9 km
Inclination: 53.2 °
Period: 91.5 minutes
Semi major axis: 6727 km
RCS: Unknown
Launch date: April 29, 2022
Source: United States (US)
Launch site: AIR FORCE EASTERN TEST RANGE (AFETR)
aabbcc
Your satellite tracking list
Your tracking list is empty




NASA's NSSDC Master Catalog

Two Line Element Set (TLE):
1 52368U 22045AP  22185.91667824  .00005041  00000-0  40368-4 0  9993
2 52368  53.2155 109.4664 0002851  26.2776  84.9858 15.73174178  1303
Source of the keplerian elements: AFSPC